Location: Sevilla
(37.3933°N, 5.9839°W)
Time: 04:46:11
(UTC+02:00)

Transit 2A Rocket - Pass Details

Date: 28 June 2024
Orbit: 582 x 910 km, 66.7° (Epoch: 15 July)

Event Time Altitude Azimuth Distance (km) Brightness Sun altitude
Rises 04:04:04 0° 349° (N) 3,511 9.2 -25.2°
Reaches altitude 10° 04:10:13 10° 36° (NE) 2,600 8.8 -24.7°
Maximum altitude 04:10:24 10° 37° (NE) 2,599 8.8 -24.7°
Drops below altitude 10° 04:10:32 10° 39° (NE) 2,600 8.7 -24.7°
Sets 04:16:43 0° 86° (E) 3,521 8.8 -24.1°
